Time,HIH7120,SHT85,AHT10,AHT10,AHT10,AHT10,AHT10,AHT10,AHT10,AHT10,AHT20,AHT20,AHT20,AHT20,AHT20,AHT20,AHT20,AHT20,AHT21,AHT21,AHT21,AHT21,AHT21,AHT21,AHT21,AHT21,AHT25,AHT25,AHT25,AHT25,AHT25,AHT25,AHT25,AHT25
21:17:41,51.52,53.90,50.59,50.72,50.24,51.21,50.39,52.86,49.22,51.08,50.52,51.00,50.24,50.58,49.68,51.50,50.70,50.89,48.52,46.70,44.72,46.59,46.84,48.93,44.85,46.82,57.59,55.87,55.57,59.46,56.89,56.23,55.23,58.78,
21:17:55,51.37,54.32,50.50,50.44,50.13,51.06,50.45,52.84,49.37,51.24,50.47,50.61,50.17,50.03,49.58,50.88,50.58,50.62,48.69,46.88,44.79,46.66,46.86,49.00,44.99,46.93,57.50,55.78,55.57,59.57,56.85,56.23,54.33,58.61,
21:18:09,51.50,54.16,50.50,50.40,50.19,51.07,50.54,52.87,49.56,51.37,50.54,50.45,50.24,49.99,49.57,50.77,50.63,50.56,48.79,47.09,44.88,46.65,47.01,49.16,45.16,46.99,57.47,55.76,55.65,59.64,56.89,56.28,53.65,58.57,
21:18:22,51.74,54.55,50.58,50.51,50.31,51.10,50.67,52.96,49.69,51.50,50.63,50.42,50.30,50.09,49.70,50.88,50.73,50.75,48.96,47.15,44.93,46.69,47.13,49.21,45.24,47.16,57.58,55.76,55.70,59.66,56.91,56.35,53.56,58.83,
21:18:36,51.94,54.47,50.65,50.66,50.46,51.20,50.78,53.07,49.87,51.66,50.76,50.50,50.41,50.26,49.80,51.09,50.81,50.84,49.11,47.39,45.00,46.79,47.21,49.26,45.35,47.16,57.53,55.85,55.85,59.82,57.10,56.49,53.44,58.87,
21:18:50,52.13,54.63,50.71,50.80,50.59,51.30,50.96,53.19,50.01,51.79,50.90,50.59,50.50,50.40,49.91,51.27,50.92,50.96,49.24,47.43,45.06,46.87,47.31,49.35,45.46,47.21,57.63,55.89,55.93,59.94,57.17,56.57,53.34,58.88,
21:19:04,52.28,54.58,50.78,50.99,50.63,51.32,50.99,53.23,50.10,51.89,50.95,50.63,50.59,50.60,50.02,51.46,50.98,51.08,49.38,47.67,45.27,47.11,47.52,49.60,45.78,47.45,57.72,55.88,56.09,60.21,57.26,56.76,53.32,58.97,
21:19:17,52.64,55.09,50.92,51.23,50.85,51.55,51.29,53.49,50.42,52.19,51.25,50.92,50.89,50.89,50.34,51.80,51.24,51.33,49.75,47.84,45.34,46.96,47.62,49.54,45.78,47.42,57.92,56.17,56.34,60.46,57.41,56.92,53.43,59.04,
21:19:31,52.79,55.53,51.15,51.53,50.98,51.62,51.39,53.59,50.57,52.33,51.28,51.11,50.91,51.05,50.37,51.93,51.26,51.45,49.74,47.80,45.54,47.22,47.94,49.86,46.07,47.84,58.21,56.46,56.45,60.57,57.59,57.11,53.71,59.31,
21:19:45,52.98,55.67,51.32,51.70,51.16,51.94,51.59,53.84,50.75,52.62,51.46,51.38,51.09,51.23,50.54,52.19,51.42,51.70,49.83,47.98,45.46,47.17,47.77,49.81,46.14,47.75,58.18,56.43,56.39,60.57,57.58,57.11,53.59,59.24,
21:19:59,53.06,55.49,51.43,51.90,51.24,51.95,51.64,53.84,50.80,52.61,51.40,51.23,51.06,51.35,50.35,52.06,51.20,51.42,48.69,46.99,44.40,46.11,46.75,49.05,45.24,47.12,57.68,55.98,55.98,60.05,57.16,56.60,53.17,58.83,
21:20:13,52.47,54.98,50.95,51.33,50.66,51.41,51.09,53.35,50.24,52.00,50.99,50.98,50.76,51.05,50.22,51.95,51.13,51.34,49.56,47.54,45.01,46.99,47.45,49.81,45.79,47.64,58.03,56.29,56.14,60.32,57.35,56.85,53.38,59.11,
21:20:26,52.89,55.49,51.27,51.64,50.97,51.75,51.38,53.61,50.42,52.24,51.22,51.22,50.94,51.14,50.40,52.05,51.30,51.51,49.34,47.20,44.95,46.73,47.26,49.42,45.58,47.47,57.90,56.09,56.03,59.99,57.20,56.62,53.15,58.81,
21:20:40,52.52,55.05,51.17,51.55,50.91,51.70,51.31,53.59,50.37,52.22,51.09,51.19,50.85,51.14,50.29,51.99,51.16,51.43,49.27,47.32,44.83,46.70,47.26,49.43,45.51,47.30,57.71,55.93,55.95,59.98,57.16,56.51,53.07,58.77,
21:20:54,52.62,55.01,51.09,51.48,50.86,51.68,51.30,53.59,50.31,52.18,51.12,51.19,50.92,51.24,50.33,52.07,51.25,51.55,49.53,47.53,45.14,46.82,47.47,49.55,45.76,47.42,57.69,55.92,55.94,60.03,57.18,56.60,53.11,58.74,
21:21:08,52.62,54.88,51.14,51.56,50.90,51.68,51.28,53.57,50.33,52.16,51.05,51.14,50.89,51.26,50.29,52.13,51.23,51.53,49.53,47.75,45.06,46.89,47.39,49.52,45.77,47.47,57.57,55.81,55.98,60.11,57.21,56.54,53.02,58.73,
21:21:22,52.64,54.89,51.19,51.71,51.04,51.82,51.47,53.74,50.55,52.41,51.23,51.26,50.97,51.41,50.40,52.25,51.33,51.66,49.63,47.91,45.18,46.93,47.51,49.62,45.86,47.51,57.57,55.83,56.04,60.30,57.30,56.74,53.10,58.88,
21:21:35,52.81,54.98,51.37,51.95,51.17,51.96,51.62,53.84,50.72,52.58,51.39,51.41,51.20,51.69,50.59,52.47,51.51,51.92,49.94,48.09,45.41,47.16,47.69,49.83,46.10,47.75,57.66,55.87,56.24,60.42,57.37,56.88,53.16,59.03,
21:21:49,53.06,54.89,51.54,52.17,51.36,52.16,51.80,54.01,50.93,52.80,51.52,51.59,51.39,51.91,50.74,52.69,51.70,52.07,50.05,48.23,45.52,47.20,47.86,49.80,46.26,47.90,57.83,55.95,56.30,60.58,57.62,56.99,53.21,59.15,
21:22:03,53.20,54.87,51.64,52.29,51.48,52.26,51.93,54.12,51.06,52.91,51.61,51.70,51.52,52.05,50.91,52.89,51.87,52.22,50.25,48.53,45.65,47.47,48.07,50.11,46.45,48.04,58.00,56.12,56.51,60.88,57.74,57.18,53.37,59.31,
21:22:17,53.40,54.96,51.83,52.48,51.70,52.41,52.08,54.23,51.20,53.05,51.69,51.77,51.64,52.18,51.01,52.91,51.94,52.37,50.14,48.31,45.59,47.24,47.90,49.86,46.35,47.98,57.73,56.05,56.45,60.76,57.74,57.14,53.37,59.22,
21:22:31,53.25,54.84,51.80,52.45,51.65,52.37,52.08,54.21,51.21,53.05,51.71,51.73,51.63,52.18,51.00,52.94,51.97,52.32,50.24,48.31,45.61,47.35,48.06,50.06,46.46,48.02,57.97,56.10,56.51,60.65,57.75,57.06,53.38,59.15,
21:22:44,53.30,55.17,51.83,52.52,51.77,52.51,52.19,54.33,51.32,53.15,51.81,51.89,51.75,52.26,51.11,53.04,52.05,52.42,50.30,48.43,45.71,47.45,48.16,50.18,46.55,48.17,57.95,56.24,56.57,60.75,57.86,57.19,53.39,59.25,
21:22:58,53.45,55.19,51.96,52.63,51.88,52.56,52.30,54.40,51.46,53.26,51.98,51.93,51.91,52.44,51.29,53.21,52.25,52.61,50.47,48.62,45.85,47.53,48.29,50.24,46.68,48.38,57.97,56.23,56.65,60.76,57.92,57.27,53.51,59.28,
21:23:12,53.47,55.23,52.13,52.77,52.05,52.73,52.45,54.51,51.59,53.38,52.06,52.04,52.03,52.48,51.39,53.22,52.35,52.63,50.65,48.67,46.03,47.75,48.32,50.37,46.83,48.27,58.00,56.34,56.65,60.79,57.98,57.29,53.57,59.43,
21:23:26,53.57,55.22,52.24,52.88,52.14,52.78,52.51,54.55,51.65,53.41,52.05,52.09,52.14,52.70,51.58,53.56,52.57,52.96,51.02,49.43,46.03,47.81,48.45,50.48,46.88,48.45,58.00,56.34,56.89,61.25,58.11,57.67,53.67,59.75,
21:23:39,53.99,55.19,52.47,53.13,52.35,53.14,52.79,54.90,51.95,53.79,52.41,52.50,52.54,53.08,51.98,53.83,52.90,53.27,51.34,49.45,46.43,48.46,48.85,51.07,47.34,49.02,58.40,56.61,57.13,61.35,58.47,57.81,53.90,59.83,
21:23:53,54.23,55.43,52.86,53.41,52.73,53.38,53.01,55.04,52.13,53.92,52.62,52.63,52.73,53.16,52.03,53.90,52.99,53.37,51.21,49.31,46.57,48.45,48.93,50.96,47.30,48.91,58.49,56.70,57.20,61.29,58.46,57.83,53.97,59.90,
21:24:07,54.16,55.38,52.87,53.44,52.72,53.34,53.04,55.05,52.16,53.96,52.66,52.64,52.73,53.26,52.11,54.06,53.13,53.57,51.69,49.95,46.93,48.67,49.45,51.66,47.93,49.53,58.89,57.11,57.55,61.88,58.94,58.25,54.48,60.38,
21:24:21,54.67,56.08,53.26,53.89,53.13,53.70,53.42,55.36,52.51,54.31,53.02,53.01,53.06,53.52,52.48,54.31,53.41,53.80,51.80,49.88,47.17,49.10,49.75,51.76,48.20,49.71,59.05,57.27,57.78,62.08,59.07,58.40,54.61,60.50,
21:24:35,54.94,56.51,53.72,54.22,53.65,54.28,54.00,55.90,53.05,54.90,53.45,53.47,53.57,53.93,52.96,54.72,53.87,54.15,51.97,50.06,47.33,49.15,49.73,51.80,48.28,49.83,59.32,57.47,57.91,62.14,59.25,58.45,54.68,60.60,
21:24:48,54.99,56.33,53.84,54.25,53.73,54.34,53.97,55.91,53.05,54.87,53.49,53.50,53.60,53.96,52.90,54.68,53.84,54.13,51.90,50.06,47.29,49.20,49.93,51.93,48.43,49.92,59.33,57.49,57.92,62.06,59.25,58.53,54.68,60.60,
21:25:02,55.04,56.55,54.02,54.59,53.97,54.58,54.27,56.16,53.35,55.17,53.79,53.83,53.99,54.43,53.39,55.18,54.24,54.57,52.68,50.84,47.82,49.70,50.34,52.42,48.87,50.47,59.73,57.87,58.31,62.63,59.69,58.90,55.04,61.12,
21:25:16,55.57,57.00,54.56,55.23,54.45,55.11,54.89,56.73,53.97,55.82,54.23,54.22,54.54,55.10,53.97,55.77,54.75,55.14,53.12,51.45,48.18,50.08,50.70,52.70,49.37,50.80,60.09,58.28,59.01,63.43,60.33,59.63,55.65,61.86,
21:25:29,56.28,57.17,55.00,55.48,54.84,55.42,55.11,56.90,54.18,55.99,54.47,54.56,54.70,55.18,54.05,55.93,54.97,55.39,53.32,51.34,48.26,50.15,50.69,52.74,49.30,50.91,60.18,58.41,58.94,63.32,60.41,59.63,55.60,61.70,
21:25:44,56.06,57.39,55.07,55.56,55.17,55.81,55.46,57.25,54.52,56.36,54.80,54.79,54.79,55.26,54.11,55.92,54.99,55.32,53.06,51.18,48.33,50.36,50.83,52.98,49.49,50.97,60.29,58.52,58.98,63.18,60.37,59.49,55.56,61.60,
21:25:57,55.99,57.15,55.00,55.43,54.95,55.51,55.16,56.98,54.29,56.07,54.62,54.68,54.80,55.24,54.15,55.90,55.02,55.29,53.10,51.28,48.40,50.27,50.84,52.79,49.44,51.04,60.35,58.56,59.03,63.34,60.45,59.53,55.67,61.70,
21:26:11,56.11,57.27,55.19,55.60,55.06,55.64,55.29,57.08,54.41,56.21,54.67,54.69,54.89,55.28,54.22,55.95,55.06,55.31,53.22,51.36,48.42,50.26,50.90,52.83,49.48,50.97,60.33,58.58,59.17,63.55,60.58,59.61,55.76,61.78,
21:26:25,56.06,57.04,55.06,55.44,54.84,55.32,54.98,56.77,54.09,55.86,54.41,54.45,54.66,55.11,53.94,55.71,54.83,55.13,52.74,50.88,48.06,50.01,50.52,52.58,49.14,50.66,60.17,58.34,58.89,63.26,60.28,59.28,55.54,61.50,
21:26:38,55.79,57.11,54.87,55.32,54.77,55.33,54.98,56.79,54.13,55.91,54.37,54.38,54.57,54.97,53.86,55.61,54.78,55.06,52.63,50.92,48.02,49.89,50.58,52.48,49.17,50.63,59.98,58.17,58.72,62.99,60.15,59.17,55.39,61.25,
21:26:52,55.52,56.71,54.71,55.03,54.52,55.07,54.67,56.50,53.82,55.56,54.10,54.15,54.33,54.71,53.60,55.37,54.52,54.77,52.41,50.43,47.66,49.44,50.02,52.07,48.71,50.17,59.72,57.91,58.44,62.71,59.80,58.90,55.14,61.01,
21:27:06,55.30,56.62,54.53,54.94,54.35,54.89,54.57,56.37,53.71,55.43,54.02,54.01,54.24,54.66,53.54,55.34,54.44,54.71,52.48,50.64,47.82,49.57,50.28,52.25,48.85,50.33,59.80,57.94,58.51,62.80,59.76,58.92,55.09,61.00,
21:27:20,55.43,56.84,54.60,55.03,54.38,54.94,54.66,56.48,53.83,55.58,54.05,54.05,54.32,54.75,53.65,55.41,54.52,54.85,52.58,50.88,47.92,49.77,50.45,52.35,49.10,50.43,59.81,58.00,58.58,62.88,59.89,58.99,55.16,61.10,
21:27:34,55.62,56.99,54.75,55.22,54.55,55.09,54.77,56.55,53.90,55.64,54.16,54.15,54.45,54.90,53.71,55.54,54.62,54.93,52.53,50.70,47.82,49.68,50.24,52.27,48.96,50.34,59.86,58.03,58.54,62.84,59.87,58.99,55.09,61.13,
21:27:47,55.52,56.73,54.70,55.10,54.45,54.95,54.64,56.43,53.79,55.49,54.09,54.02,54.36,54.70,53.57,55.32,54.47,54.73,52.31,50.53,47.57,50.65,51.55,53.38,49.67,51.27,60.06,58.18,58.75,62.94,60.05,59.11,55.37,61.19,
21:28:01,55.89,57.02,55.24,55.68,54.77,55.24,54.91,56.61,53.66,54.90,52.90,52.46,52.42,52.83,50.91,52.54,50.92,51.50,39.67,38.31,36.68,37.52,38.55,40.03,36.48,38.92,53.80,52.49,51.56,54.22,52.43,51.36,48.84,52.90,
21:28:15,46.54,50.61,46.51,46.18,45.71,44.99,46.17,47.82,45.29,46.46,45.30,44.81,45.28,45.42,44.67,46.40,45.21,44.94,40.60,36.89,36.70,36.61,38.25,39.34,36.38,36.20,49.97,49.92,48.28,50.24,48.34,46.39,44.11,47.91,
21:28:29,38.21,43.65,38.11,36.60,35.68,32.33,34.83,36.64,33.24,32.66,32.88,31.94,32.13,33.07,29.94,32.22,30.37,30.65,18.79,17.04,18.66,18.86,21.31,22.77,18.63,19.77,40.28,41.56,39.11,41.83,41.16,39.21,38.72,41.71,
21:28:43,30.35,36.80,28.60,29.40,26.63,26.10,27.68,30.51,26.47,26.72,26.98,26.48,27.13,27.83,25.63,27.83,26.18,26.43,18.16,16.07,14.15,13.53,14.58,16.47,12.21,13.18,36.43,37.23,33.20,35.31,34.63,32.31,31.96,33.98,
21:28:56,22.32,28.05,21.19,21.02,18.84,17.98,19.89,23.52,19.49,19.76,19.36,19.67,19.44,19.94,17.94,20.17,19.02,19.07,12.00,9.01,9.80,9.44,10.34,12.77,8.32,9.71,31.69,32.28,28.07,29.57,29.76,26.83,27.40,29.13,
21:29:10,17.48,22.87,16.28,16.21,14.33,14.53,15.63,19.87,15.41,16.12,15.66,16.62,15.86,15.89,14.78,16.62,16.46,16.12,11.96,8.70,9.48,9.79,9.73,12.87,8.17,9.82,29.80,29.76,25.55,27.20,27.13,24.57,24.96,26.69,
21:29:24,15.97,22.13,14.49,14.60,12.67,13.53,14.19,18.78,14.16,15.24,14.34,15.94,14.89,14.67,13.92,15.52,15.54,14.95,12.18,8.77,10.25,11.19,10.33,13.87,8.78,10.78,29.55,29.01,24.62,26.58,26.04,23.82,24.19,25.82,
21:29:38,15.77,23.20,13.88,14.08,12.02,13.32,13.86,18.57,14.06,15.37,14.04,16.43,14.69,14.20,13.89,15.20,15.51,14.80,13.01,9.19,11.24,12.74,11.25,15.09,9.79,12.36,30.01,29.05,24.63,26.77,25.94,23.91,24.19,25.84,
21:29:51,16.46,24.52,13.85,14.09,11.91,13.53,13.90,18.83,14.43,15.92,14.22,16.97,14.90,14.49,14.18,15.46,15.81,15.00,13.55,9.82,12.10,14.27,11.91,16.19,10.84,13.96,30.79,29.34,24.64,26.77,25.76,23.87,24.26,25.89,
21:30:05,16.68,26.01,13.99,14.14,11.90,13.81,13.98,19.11,14.80,16.50,14.61,18.09,15.15,14.70,14.54,15.77,16.13,15.29,14.20,10.26,13.09,15.86,12.80,17.33,11.82,15.79,31.69,30.01,24.93,27.15,26.18,24.36,24.73,26.18,
21:30:19,17.43,27.41,14.34,14.35,12.12,14.26,14.35,19.58,15.48,17.27,15.16,19.24,15.57,14.97,15.04,16.22,16.59,15.81,15.15,11.16,14.49,17.83,13.99,19.01,13.37,17.99,32.84,30.86,25.37,27.77,26.70,25.09,25.27,26.85,
21:30:33,18.17,28.94,14.77,14.67,12.46,14.75,14.77,20.06,16.12,18.02,15.77,20.40,16.01,15.43,15.57,16.70,17.11,16.33,16.09,12.07,15.23,19.17,14.70,20.02,14.55,19.59,34.05,31.77,26.14,28.61,27.41,25.81,25.97,27.59,
21:30:47,18.80,30.17,15.20,15.05,12.85,15.34,15.27,20.61,16.94,18.92,16.44,21.59,16.53,15.92,16.26,17.21,17.63,16.80,16.95,12.88,16.42,20.81,15.84,21.50,16.03,21.59,35.21,32.66,26.76,29.35,27.83,26.41,26.45,28.13,
21:31:00,19.83,31.61,15.72,15.51,13.36,16.06,15.85,21.31,17.79,19.87,17.20,22.79,17.15,16.54,16.95,17.87,18.33,17.45,17.89,13.77,17.45,22.21,16.81,22.76,17.37,23.45,36.24,33.39,27.30,30.06,28.39,27.10,26.89,28.59,
21:31:14,20.73,32.80,16.28,16.01,13.88,16.80,16.44,22.03,18.64,20.86,17.95,23.94,17.72,17.20,17.63,18.54,18.94,18.19,18.69,14.74,18.38,23.66,17.83,24.20,18.95,25.74,37.19,34.15,27.87,30.80,28.94,27.80,27.48,29.28,
21:31:28,21.56,34.21,16.99,16.62,14.62,17.62,17.24,22.78,19.64,21.95,18.75,25.12,18.42,17.86,18.31,19.17,19.56,18.80,19.40,15.46,19.36,25.07,18.77,25.12,20.10,26.82,38.26,35.06,28.36,31.44,29.60,28.54,28.10,30.08,
21:31:42,22.24,35.06,17.65,17.23,15.35,18.44,17.99,23.56,20.60,23.05,18.90,26.21,19.11,18.56,19.06,19.88,20.27,19.53,20.58,16.46,20.38,26.01,19.52,26.12,21.46,28.55,39.31,35.81,28.90,32.24,30.05,29.27,28.71,30.84,
21:31:56,23.17,36.12,18.32,17.85,16.09,19.14,18.72,24.29,21.57,24.10,19.85,27.13,19.85,19.26,19.81,20.57,20.91,20.10,21.75,17.63,21.79,27.72,20.95,27.45,23.22,30.73,40.11,36.52,29.65,33.12,30.87,29.95,29.44,31.49,
21:32:09,24.15,37.50,19.01,18.49,16.82,19.87,19.54,24.97,22.53,25.06,20.78,28.15,20.57,19.96,20.49,21.20,21.62,20.70,22.52,18.44,22.63,28.77,21.92,28.77,24.46,32.62,41.06,37.44,30.47,33.84,31.60,30.81,30.09,32.20,
21:32:23,25.05,38.88,19.72,19.18,17.57,20.67,20.30,25.66,23.41,25.98,21.70,29.22,21.26,20.64,21.39,21.93,22.48,21.50,23.72,19.63,24.15,30.71,23.62,30.44,26.01,34.05,42.19,38.31,31.17,34.74,32.40,31.72,30.84,33.00,
21:32:37,26.08,40.35,20.40,19.81,18.40,21.53,21.09,26.46,24.39,27.01,22.55,30.20,21.94,21.37,22.22,22.47,23.22,22.17,24.39,20.43,25.32,31.70,24.65,31.37,27.17,35.66,43.03,39.12,31.89,35.52,33.15,32.47,31.44,33.75,
21:32:51,26.86,41.17,21.09,20.49,19.23,22.38,21.87,27.21,25.32,28.00,23.44,31.23,22.68,22.13,22.98,23.13,23.99,22.90,25.54,21.36,26.37,32.83,25.55,32.32,28.46,37.11,43.95,40.00,32.63,36.29,33.91,33.27,32.34,34.58,
21:33:04,27.79,42.05,21.79,21.10,20.09,23.17,22.70,27.96,26.23,28.93,24.29,32.22,23.36,22.84,23.67,23.78,24.67,23.60,26.43,22.03,27.30,33.98,26.33,33.25,29.62,38.69,44.90,40.77,33.32,37.00,34.66,34.04,32.96,35.24,
21:33:18,28.62,42.83,22.47,21.80,20.91,23.98,23.48,28.70,27.11,29.87,25.03,33.03,23.97,23.52,24.43,24.63,25.43,24.29,27.51,23.20,28.53,35.14,27.55,34.30,31.03,40.22,45.52,41.49,34.07,37.65,35.42,34.80,33.71,36.01,
21:33:32,29.47,43.72,23.14,22.45,21.77,24.83,24.26,29.43,28.00,30.78,25.82,34.01,24.67,24.23,25.11,25.33,26.23,24.93,28.68,24.18,29.58,36.35,28.95,35.62,32.47,41.44,46.50,42.29,34.96,38.55,36.26,35.59,34.40,36.75,
21:33:46,30.59,44.69,23.84,23.19,22.71,25.70,25.12,30.20,28.96,31.76,26.64,34.75,25.44,24.99,25.92,26.04,27.00,25.64,29.60,25.20,30.51,37.21,29.79,36.35,33.46,42.68,47.20,42.95,35.62,39.27,37.01,36.26,35.09,37.49,
21:34:00,31.50,45.49,24.55,23.88,23.58,26.50,25.98,30.91,29.80,32.61,27.39,35.62,26.30,25.75,26.66,26.75,27.75,26.33,30.47,26.17,31.45,38.06,30.81,37.24,34.54,43.84,47.77,43.61,36.31,40.07,37.60,36.99,35.68,38.01,
21:34:13,32.40,46.14,25.31,24.56,24.42,27.26,26.75,31.58,30.60,33.41,28.09,36.37,27.08,26.46,27.48,27.43,28.55,27.04,31.26,27.03,32.22,38.79,32.09,37.99,35.56,45.09,48.41,44.16,36.96,40.77,38.29,37.70,36.32,38.66,
21:34:27,33.16,46.85,26.09,25.25,25.26,28.00,27.48,32.19,31.33,34.17,28.82,37.05,27.80,27.24,28.28,28.11,29.21,27.66,32.06,27.87,32.86,39.49,32.37,38.54,36.46,45.90,48.98,44.70,37.65,41.32,38.90,38.30,36.77,39.34,
21:34:41,33.92,47.39,26.82,25.88,26.05,28.70,28.15,32.79,32.05,34.92,29.48,37.71,28.44,27.95,28.96,28.78,29.95,28.24,32.99,28.63,33.82,40.21,32.74,39.28,37.52,46.72,49.66,45.29,38.23,41.99,39.49,38.90,37.33,39.73,
21:34:55,34.72,47.96,27.50,26.50,26.86,29.35,28.87,33.39,32.80,35.66,30.09,38.29,29.17,28.62,29.66,29.36,30.67,28.85,33.63,29.30,34.35,40.82,33.35,39.80,37.99,47.68,50.11,45.74,38.80,42.57,40.05,39.41,37.74,40.24,
21:35:09,35.45,48.43,28.10,27.12,27.67,30.00,29.57,33.93,33.48,36.34,30.71,38.90,29.85,29.29,30.35,30.07,31.37,29.47,34.48,30.12,35.17,41.46,34.41,40.33,39.02,48.47,50.58,46.18,39.22,43.09,40.63,39.99,38.26,40.85,
21:35:22,36.11,48.97,28.75,27.70,28.38,30.57,30.16,34.41,34.09,36.94,31.37,39.53,30.42,29.94,30.90,30.65,32.00,30.10,35.34,30.84,35.84,41.85,35.00,40.82,39.84,49.44,51.08,46.68,39.80,43.67,41.10,40.51,38.66,41.39,
21:35:36,36.82,49.37,29.36,28.27,29.11,31.15,30.72,34.84,34.67,37.52,31.95,40.00,31.05,30.58,31.58,31.24,32.65,30.71,35.97,31.43,36.40,42.54,35.69,41.48,40.71,50.28,51.52,47.08,40.36,44.27,41.68,40.99,39.15,41.86,
21:35:50,37.58,49.91,30.02,28.86,29.83,31.70,31.28,35.30,35.22,38.11,32.46,40.53,31.71,31.17,32.32,31.81,33.34,31.33,36.61,32.23,37.04,43.01,36.34,41.88,41.37,50.83,51.86,47.55,40.93,44.76,42.19,41.60,39.53,42.27,
21:36:04,38.31,50.33,30.62,29.45,30.50,32.24,31.84,35.77,35.81,38.69,33.08,40.97,32.31,31.75,32.89,32.46,33.99,31.98,37.52,33.05,37.62,43.75,37.03,42.51,42.11,51.61,52.46,47.90,41.52,45.34,42.80,42.08,40.04,42.81,
21:36:18,38.99,50.70,31.17,29.96,31.17,32.74,32.40,36.20,36.36,39.24,33.50,41.48,32.93,32.29,33.50,32.93,34.61,32.60,38.01,33.62,38.17,44.21,37.61,42.94,42.67,52.11,52.84,48.31,41.99,45.78,43.26,42.60,40.32,43.33,
21:36:31,39.58,51.07,31.75,30.55,31.81,33.22,32.92,36.61,36.89,39.76,34.03,41.89,33.54,32.90,34.08,33.52,35.23,33.20,38.93,34.47,38.75,44.58,38.57,43.41,43.34,52.78,52.93,48.63,42.48,46.41,43.69,43.17,40.70,43.67,
21:36:45,40.31,51.44,32.29,31.08,32.46,33.72,33.45,36.99,37.42,40.28,34.48,42.32,34.10,33.42,34.59,33.97,35.82,33.75,39.31,34.94,39.11,44.83,38.90,43.69,43.76,53.09,53.29,48.95,42.90,46.86,44.14,43.69,41.06,44.18,
21:36:59,40.97,51.80,32.85,31.60,33.05,34.17,33.96,37.37,37.91,40.76,34.94,42.69,34.67,33.95,35.12,34.54,36.43,34.29,39.76,35.37,39.42,45.21,38.89,43.96,44.39,53.80,53.66,49.32,43.34,47.28,44.62,44.03,41.41,44.55,
21:37:13,41.56,52.04,33.42,32.11,33.66,34.60,34.46,37.75,38.40,41.24,35.33,43.08,35.31,34.54,35.65,35.00,36.97,34.83,40.46,35.99,40.01,45.67,39.29,44.44,44.80,54.36,53.99,49.46,43.83,47.71,44.98,44.52,41.91,45.01,
21:37:27,42.09,52.23,33.86,32.58,34.22,35.00,34.91,38.08,38.84,41.69,35.69,43.38,35.76,34.86,36.11,35.47,37.47,35.29,40.85,36.48,40.38,46.01,39.77,44.73,45.21,54.68,54.21,49.79,44.23,48.06,45.34,44.92,42.10,45.40,
21:37:41,42.66,52.46,34.40,33.02,34.74,35.36,35.36,38.38,39.26,42.08,36.05,43.76,36.25,35.44,36.56,35.90,37.99,35.73,41.31,37.09,40.69,46.14,40.22,45.04,45.66,55.15,54.43,50.07,44.65,48.49,45.74,45.33,42.27,45.64,
21:37:54,43.14,52.70,34.84,33.45,35.25,35.67,35.74,38.63,39.65,42.43,36.37,44.00,36.76,35.90,37.03,36.36,38.44,36.22,41.67,37.52,40.94,46.46,40.46,45.30,46.02,55.56,54.74,50.17,45.00,48.76,46.05,45.62,42.49,46.02,
21:38:08,43.61,52.94,35.28,33.93,35.78,36.05,36.14,38.93,40.04,42.77,36.72,44.27,37.29,36.39,37.51,36.74,38.98,36.70,42.52,38.20,41.56,46.82,41.12,45.78,46.61,56.16,54.98,50.52,45.39,49.17,46.47,46.02,42.90,46.40,
21:38:22,44.22,53.21,35.79,34.44,36.33,36.40,36.57,39.22,40.43,43.12,37.10,44.58,37.81,36.93,37.94,37.24,39.37,37.10,42.86,38.59,41.81,47.08,41.37,46.02,46.91,56.36,55.09,50.67,45.80,49.56,46.80,46.27,43.24,46.72,
21:38:36,44.71,53.44,36.24,34.82,36.80,36.73,36.94,39.48,40.75,43.45,37.37,44.86,38.32,37.38,38.39,37.59,39.87,37.53,43.48,39.00,42.18,47.51,41.76,46.31,47.45,56.80,55.34,50.86,46.17,49.88,47.18,46.70,43.51,47.03,
21:38:50,45.20,53.63,36.66,35.23,37.26,36.99,37.27,39.70,41.07,43.72,37.66,45.03,38.74,37.77,38.74,37.99,40.30,37.91,43.70,39.44,42.40,47.67,42.07,46.42,47.68,57.10,55.52,51.06,46.55,50.17,47.52,47.07,43.76,47.35,
21:39:03,45.51,53.83,37.08,35.62,37.68,37.27,37.59,39.91,41.36,44.00,38.00,45.33,39.18,38.15,39.16,38.33,40.74,38.31,44.06,39.84,42.59,47.76,42.31,46.66,48.03,57.39,55.71,51.24,46.78,50.55,47.78,47.27,44.06,47.62,
21:39:17,45.90,54.00,37.49,35.99,38.08,37.52,37.86,40.11,41.65,44.25,38.20,45.49,39.54,38.55,39.51,38.68,41.14,38.64,44.35,40.09,42.95,48.09,42.69,46.87,48.28,57.80,55.89,51.40,47.03,50.89,48.10,47.50,44.18,47.83,
21:39:31,46.32,54.24,37.86,36.37,38.46,37.78,38.17,40.31,41.97,44.54,38.47,45.76,39.95,38.86,39.91,38.98,41.54,39.06,44.71,40.49,43.27,48.36,42.89,47.08,48.46,57.93,56.15,51.59,47.30,51.08,48.35,47.74,44.43,48.07,
21:39:45,46.66,54.37,38.20,36.70,38.81,38.02,38.45,40.49,42.28,44.81,38.70,45.94,40.37,39.20,40.22,39.29,41.91,39.37,45.02,40.61,43.43,48.49,43.12,47.19,48.71,58.22,56.25,51.69,47.55,51.27,48.63,48.08,44.63,48.25,
21:39:59,47.05,54.49,38.55,37.04,39.18,38.28,38.74,40.65,42.55,45.06,38.90,46.15,40.78,39.55,40.59,39.64,42.28,39.72,45.28,41.00,43.63,48.64,43.48,47.51,48.97,58.46,56.38,51.93,47.81,51.46,48.88,48.30,44.92,48.53,
21:40:13,47.39,54.65,38.93,37.42,39.52,38.51,38.99,40.85,42.84,45.32,39.17,46.36,41.05,39.55,40.89,39.89,42.65,40.05,45.68,41.34,44.00,48.92,43.79,47.69,49.28,58.68,56.54,52.01,48.06,51.74,49.19,48.57,45.21,48.82,
21:40:26,47.74,54.80,39.28,37.76,39.89,38.76,39.26,41.02,43.06,45.56,39.41,46.57,41.40,39.90,41.22,40.23,42.99,40.36,46.08,41.83,44.30,49.03,43.93,47.83,49.52,58.87,56.77,52.14,48.33,51.95,49.41,48.87,45.34,49.03,
21:40:40,48.10,54.94,39.59,38.08,40.23,38.99,39.50,41.20,43.32,45.78,39.60,46.67,41.77,40.60,41.47,40.50,43.34,40.73,46.50,42.07,44.47,49.18,44.09,47.89,49.74,59.09,56.81,52.36,48.58,52.20,49.66,49.03,45.30,49.30,
21:40:54,48.47,55.02,39.93,38.40,40.55,39.21,39.77,41.36,43.58,46.01,39.76,46.83,42.03,40.60,41.78,40.79,43.70,41.00,46.71,42.33,44.59,49.31,44.38,48.19,50.02,59.26,56.92,52.43,48.78,52.44,49.83,49.25,45.60,49.44,
21:41:08,48.81,55.16,40.22,38.69,40.87,39.41,40.00,41.51,43.82,46.21,39.95,46.99,42.35,40.96,42.02,41.00,44.00,41.33,46.97,42.53,44.75,49.39,44.54,48.21,50.10,59.50,57.03,52.45,49.02,52.57,50.04,49.44,45.63,49.64,
21:41:22,49.10,55.31,40.52,38.97,41.16,39.61,40.22,41.67,44.04,46.43,40.12,47.10,42.66,41.51,42.27,41.28,44.29,41.58,47.19,42.80,44.84,49.54,44.54,48.33,50.06,59.53,57.09,52.55,49.16,52.73,50.21,49.63,45.85,49.75,
21:41:35,49.35,55.33,40.79,39.24,41.43,39.78,40.42,41.83,44.25,46.61,40.23,47.25,42.97,41.51,42.51,41.51,44.53,41.84,47.30,42.97,44.87,49.57,44.60,48.29,50.30,59.65,57.22,52.65,49.36,52.92,50.46,49.79,46.10,49.94,
21:41:50,49.64,55.42,41.09,39.52,41.74,39.94,40.66,41.94,44.45,46.81,40.37,47.30,43.23,41.77,42.76,41.76,44.82,42.13,47.75,43.39,45.11,49.79,44.94,48.42,50.57,59.84,57.29,52.74,49.55,53.17,50.61,50.01,46.15,50.05,
21:42:03,49.91,55.44,41.34,39.77,42.02,40.11,40.85,42.07,44.63,46.96,40.48,47.50,43.47,42.09,42.95,41.99,45.14,42.36,47.86,43.66,45.29,49.75,45.00,48.50,50.60,60.09,57.39,52.79,49.69,53.34,50.78,50.17,46.31,50.28,
21:42:17,50.13,55.51,41.59,40.01,42.26,40.26,41.02,42.20,44.81,47.13,40.63,47.57,43.79,42.29,43.20,42.19,45.31,42.64,48.15,43.90,45.30,49.87,45.19,48.56,50.68,60.10,57.43,52.86,49.91,53.49,51.03,50.39,46.43,50.33,
21:42:31,50.32,55.56,41.80,40.21,42.51,40.40,41.20,42.31,44.99,47.27,40.79,47.68,43.97,42.56,43.37,42.41,45.52,42.89,48.30,44.00,45.50,50.06,45.34,48.73,50.86,60.26,57.49,52.92,50.09,53.59,51.18,50.58,46.48,50.60,
21:42:45,50.49,55.60,42.01,40.42,42.73,40.52,41.35,42.39,45.17,47.44,40.88,47.72,44.23,42.79,43.51,42.56,45.84,43.09,48.48,44.18,45.61,50.12,45.43,48.66,50.99,60.13,57.61,53.01,50.21,53.78,51.29,50.69,46.60,50.75,